| time (UTC) | temp C | wind direction | speed KPH | gust KPH | rain 1hr cm | rain 24hr cm | rain mn cm | humidity % | barometer mb |
| 20260503213048 | 15 | 228 | 9.7 | 16.1 | 0.00 | 0.00 | 0.00 | 80 | 1011.8 |
| 20260503212537 | 14 | 240 | 9.7 | 16.1 | 0.00 | 0.00 | 0.00 | 79 | 1011.8 |
| 20260503212038 | 15 | 231 | 8.0 | 16.1 | 0.00 | 0.00 | 0.00 | 79 | 1011.8 |
| 20260503211543 | 15 | 253 | 8.0 | 16.1 | 0.00 | 0.00 | 0.00 | 80 | 1011.8 |
| 20260503211038 | 15 | 255 | 9.7 | 16.1 | 0.00 | 0.00 | 0.00 | 78 | 1011.9 |
| 20260503210537 | 15 | 167 | 8.0 | 16.1 | 0.00 | 0.00 | 0.00 | 78 | 1011.8 |
| 20260503210049 | 15 | 200 | 8.0 | 16.1 | 0.00 | 0.00 | 0.00 | 78 | 1011.8 |
| 20260503205537 | 15 | 228 | 9.7 | 16.1 | 0.00 | 0.00 | 0.00 | 79 | 1011.7 |
| 20260503205038 | 15 | 232 | 8.0 | 16.1 | 0.00 | 0.00 | 0.00 | 79 | 1011.7 |
| 20260503204601 | 15 | 225 | 8.0 | 16.1 | 0.00 | 0.00 | 0.00 | 78 | 1011.7 |
| 20260503204037 | 15 | 229 | 8.0 | 16.1 | 0.00 | 0.00 | 0.00 | 77 | 1011.7 |
| 20260503203536 | 15 | 236 | 8.0 | 16.1 | 0.00 | 0.00 | 0.00 | 77 | 1011.8 |
| 20260503203054 | 14 | 206 | 8.0 | 16.1 | 0.00 | 0.00 | 0.00 | 77 | 1011.8 |
| 20260503202538 | 14 | 221 | 8.0 | 12.9 | 0.00 | 0.00 | 0.00 | 77 | 1011.9 |
| 20260503202037 | 14 | 190 | 8.0 | 11.3 | 0.00 | 0.00 | 0.00 | 78 | 1011.9 |
| 20260503201545 | 14 | 210 | 6.4 | 11.3 | 0.00 | 0.00 | 0.00 | 79 | 1011.9 |
| 20260503201038 | 14 | 252 | 4.8 | 11.3 | 0.00 | 0.00 | 0.00 | 79 | 1012.0 |
| 20260503200537 | 14 | 215 | 4.8 | 11.3 | 0.00 | 0.00 | 0.00 | 80 | 1012.1 |
| 20260503200046 | 14 | 236 | 4.8 | 9.7 | 0.00 | 0.00 | 0.00 | 81 | 1012.1 |
| 20260503195539 | 14 | 227 | 4.8 | 9.7 | 0.00 | 0.00 | 0.00 | 80 | 1012.1 |
| 20260503195037 | 14 | 215 | 4.8 | 9.7 | 0.00 | 0.00 | 0.00 | 80 | 1012.1 |
| 20260503194545 | 14 | 225 | 6.4 | 9.7 | 0.00 | 0.00 | 0.00 | 79 | 1012.1 |
| 20260503194037 | 14 | 235 | 6.4 | 12.9 | 0.00 | 0.00 | 0.00 | 80 | 1012.1 |
| 20260503193537 | 14 | 211 | 6.4 | 12.9 | 0.00 | 0.00 | 0.00 | 81 | 1012.2 |
| 20260503193047 | 14 | 196 | 6.4 | 17.7 | 0.00 | 0.00 | 0.00 | 81 | 1012.1 |
| 20260503192537 | 13 | 220 | 6.4 | 17.7 | 0.00 | 0.00 | 0.00 | 83 | 1012.1 |
| 20260503192037 | 13 | 178 | 8.0 | 16.1 | 0.00 | 0.00 | 0.00 | 82 | 1012.2 |
| 20260503191548 | 13 | 209 | 4.8 | 11.3 | 0.00 | 0.00 | 0.00 | 82 | 1012.2 |
| 20260503191037 | 13 | 220 | 6.4 | 11.3 | 0.00 | 0.00 | 0.00 | 83 | 1012.2 |
| 20260503190537 | 13 | 219 | 4.8 | 11.3 | 0.00 | 0.00 | 0.00 | 83 | 1012.1 |
| 20260503190057 | 13 | 193 | 6.4 | 11.3 | 0.00 | 0.00 | 0.00 | 83 | 1012.1 |
| 20260503185537 | 13 | 223 | 4.8 | 11.3 | 0.00 | 0.00 | 0.00 | 83 | 1012.1 |
| 20260503185036 | 13 | 194 | 6.4 | 11.3 | 0.00 | 0.00 | 0.00 | 83 | 1012.2 |
| 20260503184546 | 13 | 232 | 6.4 | 11.3 | 0.00 | 0.00 | 0.00 | 84 | 1012.1 |
| 20260503184037 | 13 | 243 | 6.4 | 11.3 | 0.00 | 0.00 | 0.00 | 84 | 1012.2 |
| 20260503183537 | 13 | 234 | 6.4 | 11.3 | 0.00 | 0.00 | 0.00 | 84 | 1012.2 |
| 20260503183051 | 13 | 230 | 4.8 | 11.3 | 0.00 | 0.00 | 0.00 | 84 | 1012.2 |
| 20260503182537 | 13 | 244 | 6.4 | 12.9 | 0.00 | 0.00 | 0.00 | 83 | 1012.1 |
| 20260503182037 | 14 | 191 | 4.8 | 12.9 | 0.00 | 0.00 | 0.00 | 84 | 1012.1 |
| 20260503181544 | 13 | 248 | 4.8 | 12.9 | 0.00 | 0.00 | 0.00 | 85 | 1012.1 |
| 20260503181037 | 13 | 235 | 4.8 | 11.3 | 0.00 | 0.00 | 0.00 | 85 | 1012.1 |
| 20260503180537 | 13 | 229 | 3.2 | 9.7 | 0.00 | 0.00 | 0.00 | 85 | 1012.1 |
| 20260503180056 | 13 | 229 | 3.2 | 9.7 | 0.00 | 0.00 | 0.00 | 85 | 1012.0 |
| 20260503175537 | 13 | 234 | 3.2 | 8.0 | 0.00 | 0.00 | 0.00 | 87 | 1012.1 |
| 20260503175038 | 13 | 251 | 3.2 | 8.0 | 0.00 | 0.00 | 0.00 | 86 | 1012.0 |
| 20260503174549 | 13 | 240 | 3.2 | 8.0 | 0.00 | 0.00 | 0.00 | 86 | 1012.0 |
| 20260503174039 | 13 | 240 | 3.2 | 6.4 | 0.00 | 0.00 | 0.00 | 86 | 1012.0 |
| 20260503173538 | 12 | 253 | 3.2 | 6.4 | 0.00 | 0.00 | 0.00 | 87 | 1011.9 |
| 20260503173134 | 12 | 252 | 1.6 | 6.4 | 0.00 | 0.00 | 0.00 | 87 | 1011.9 |
| 20260503172538 | 12 | 286 | 1.6 | 6.4 | 0.00 | 0.00 | 0.00 | 88 | 1011.8 |
| 20260503172036 | 12 | 240 | 3.2 | 6.4 | 0.00 | 0.00 | 0.00 | 88 | 1011.9 |
| 20260503171554 | 12 | 199 | 3.2 | 6.4 | 0.00 | 0.00 | 0.00 | 89 | 1011.8 |
| 20260503171036 | 12 | 227 | 3.2 | 6.4 | 0.00 | 0.00 | 0.00 | 90 | 1011.8 |
| 20260503170537 | 12 | 234 | 3.2 | 8.0 | 0.00 | 0.00 | 0.00 | 90 | 1011.8 |
| 20260503150537 | 11 | 202 | 1.6 | 8.0 | 0.00 | 0.00 | 0.00 | 89 | 1011.1 |
| 20260503131036 | 11 | 234 | 1.6 | 4.8 | 0.00 | 0.00 | 0.00 | 89 | 1009.8 |
| 20260503130536 | 11 | 232 | 1.6 | 4.8 | 0.00 | 0.00 | 0.00 | 89 | 1009.7 |
| 20260503110536 | 11 | 277 | 1.6 | 4.8 | 0.00 | 0.00 | 0.00 | 89 | 1009.8 |
| 20260503081555 | 11 | 293 | 1.6 | 9.7 | 0.00 | 0.00 | 0.00 | 89 | 1010.8 |
| 20260503081037 | 11 | 278 | 3.2 | 9.7 | 0.00 | 0.00 | 0.00 | 89 | 1010.8 |
| 20260503080537 | 11 | 290 | 1.6 | 6.4 | 0.00 | 0.00 | 0.00 | 90 | 1010.8 |
| 20260503072536 | 11 | 263 | 1.6 | 6.4 | 0.00 | 0.00 | 0.00 | 89 | 1010.8 |
| 20260503072036 | 11 | 266 | 1.6 | 8.0 | 0.00 | 0.00 | 0.00 | 89 | 1010.8 |
| 20260503071544 | 11 | 288 | 3.2 | 9.7 | 0.00 | 0.00 | 0.00 | 89 | 1010.8 |
| 20260503071036 | 11 | 274 | 1.6 | 9.7 | 0.00 | 0.00 | 0.00 | 89 | 1010.7 |
| 20260503070538 | 11 | 269 | 1.6 | 8.0 | 0.00 | 0.00 | 0.00 | 89 | 1010.7 |
| 20260503055036 | 11 | 285 | 1.6 | 4.8 | 0.00 | 0.00 | 0.00 | 89 | 1011.1 |
| 20260503054550 | 11 | 285 | 1.6 | 6.4 | 0.00 | 0.00 | 0.00 | 89 | 1011.3 |
| 20260503054036 | 11 | 288 | 1.6 | 6.4 | 0.00 | 0.00 | 0.00 | 89 | 1011.3 |
| 20260503053536 | 11 | 255 | 1.6 | 4.8 | 0.00 | 0.00 | 0.00 | 89 | 1011.3 |
| 20260503053048 | 11 | 264 | 1.6 | 9.7 | 0.00 | 0.00 | 0.00 | 89 | 1011.3 |
| 20260503052539 | 11 | 262 | 3.2 | 9.7 | 0.00 | 0.00 | 0.00 | 89 | 1011.4 |
| 20260503052040 | 11 | 265 | 3.2 | 8.0 | 0.00 | 0.00 | 0.00 | 89 | 1011.4 |
| 20260503051551 | 11 | 279 | 3.2 | 12.9 | 0.00 | 0.00 | 0.00 | 89 | 1011.4 |
| 20260503051038 | 11 | 306 | 3.2 | 12.9 | 0.00 | 0.00 | 0.00 | 89 | 1011.4 |
| 20260503050539 | 11 | 293 | 1.6 | 6.4 | 0.00 | 0.00 | 0.00 | 89 | 1011.3 |
| 20260503050055 | 11 | 276 | 1.6 | 6.4 | 0.00 | 0.00 | 0.00 | 89 | 1011.3 |
| 20260503045540 | 11 | 272 | 1.6 | 6.4 | 0.00 | 0.00 | 0.00 | 90 | 1011.3 |
| 20260503045040 | 11 | 268 | 1.6 | 6.4 | 0.00 | 0.00 | 0.00 | 89 | 1011.4 |
| 20260503044545 | 11 | 282 | 3.2 | 8.0 | 0.00 | 0.00 | 0.00 | 89 | 1011.3 |
| 20260503044038 | 11 | 309 | 1.6 | 8.0 | 0.00 | 0.00 | 0.00 | 89 | 1011.3 |
| 20260503043539 | 11 | 292 | 3.2 | 8.0 | 0.00 | 0.00 | 0.00 | 89 | 1011.3 |
| 20260503043047 | 11 | 290 | 3.2 | 9.7 | 0.00 | 0.00 | 0.00 | 89 | 1011.3 |
| 20260503042539 | 11 | 275 | 3.2 | 9.7 | 0.00 | 0.00 | 0.00 | 90 | 1011.2 |
| 20260503042039 | 11 | 288 | 1.6 | 8.0 | 0.00 | 0.00 | 0.00 | 89 | 1011.2 |
| 20260503041547 | 11 | 286 | 3.2 | 9.7 | 0.00 | 0.00 | 0.00 | 89 | 1011.2 |
| 20260503041042 | 11 | 277 | 3.2 | 9.7 | 0.00 | 0.00 | 0.00 | 89 | 1011.1 |
| 20260503040538 | 11 | 290 | 3.2 | 9.7 | 0.00 | 0.00 | 0.00 | 90 | 1011.1 |
| 20260503040047 | 11 | 305 | 3.2 | 6.4 | 0.00 | 0.00 | 0.00 | 89 | 1011.1 |
| 20260503035538 | 11 | 306 | 1.6 | 9.7 | 0.00 | 0.00 | 0.00 | 90 | 1011.1 |
| 20260503035040 | 11 | 290 | 3.2 | 9.7 | 0.00 | 0.00 | 0.00 | 90 | 1011.0 |
| 20260503034550 | 11 | 269 | 1.6 | 11.3 | 0.00 | 0.00 | 0.00 | 90 | 1011.0 |
| 20260503034039 | 11 | 285 | 3.2 | 11.3 | 0.00 | 0.00 | 0.00 | 89 | 1010.9 |
| 20260503033537 | 11 | 254 | 3.2 | 11.3 | 0.00 | 0.00 | 0.00 | 89 | 1010.9 |
| 20260503033045 | 11 | 269 | 1.6 | 9.7 | 0.00 | 0.00 | 0.00 | 89 | 1010.8 |
| 20260503032538 | 11 | 288 | 3.2 | 11.3 | 0.00 | 0.00 | 0.00 | 89 | 1010.8 |
| 20260503032038 | 11 | 283 | 4.8 | 12.9 | 0.00 | 0.00 | 0.00 | 89 | 1010.7 |
| 20260503031606 | 11 | 271 | 3.2 | 12.9 | 0.00 | 0.00 | 0.00 | 89 | 1010.6 |
| 20260503031039 | 11 | 293 | 3.2 | 6.4 | 0.00 | 0.00 | 0.00 | 89 | 1010.5 |
| 20260503030539 | 11 | 291 | 1.6 | 9.7 | 0.00 | 0.00 | 0.00 | 89 | 1010.4 |
| 20260503030050 | 11 | 260 | 3.2 | 11.3 | 0.00 | 0.00 | 0.00 | 89 | 1010.4 |
| 20260503025538 | 11 | 247 | 3.2 | 11.3 | 0.00 | 0.00 | 0.00 | 89 | 1010.3 |
| 20260503025038 | 11 | 248 | 3.2 | 12.9 | 0.00 | 0.00 | 0.00 | 89 | 1010.3 |
| 20260503024550 | 11 | 282 | 3.2 | 12.9 | 0.00 | 0.00 | 0.00 | 88 | 1010.3 |
| 20260503024038 | 11 | 286 | 4.8 | 12.9 | 0.00 | 0.00 | 0.00 | 88 | 1010.3 |
| 20260503023537 | 11 | 257 | 4.8 | 11.3 | 0.00 | 0.00 | 0.00 | 88 | 1010.3 |
| 20260503023043 | 11 | 284 | 3.2 | 12.9 | 0.00 | 0.00 | 0.00 | 88 | 1010.3 |
| 20260503022537 | 12 | 257 | 4.8 | 12.9 | 0.00 | 0.00 | 0.00 | 88 | 1010.3 |
| 20260503022038 | 12 | 267 | 3.2 | 11.3 | 0.00 | 0.00 | 0.00 | 87 | 1010.3 |
| 20260503021548 | 12 | 249 | 4.8 | 11.3 | 0.00 | 0.00 | 0.00 | 87 | 1010.4 |
| 20260503021041 | 12 | 280 | 4.8 | 11.3 | 0.00 | 0.00 | 0.00 | 87 | 1010.4 |
| 20260503020538 | 12 | 242 | 3.2 | 9.7 | 0.00 | 0.00 | 0.00 | 87 | 1010.4 |
| 20260503020059 | 12 | 234 | 3.2 | 8.0 | 0.00 | 0.00 | 0.00 | 87 | 1010.5 |
| 20260503015539 | 12 | 273 | 3.2 | 9.7 | 0.00 | 0.00 | 0.00 | 87 | 1010.6 |
| 20260503015039 | 12 | 271 | 4.8 | 12.9 | 0.00 | 0.00 | 0.00 | 86 | 1010.6 |
| 20260503014552 | 12 | 263 | 4.8 | 12.9 | 0.00 | 0.00 | 0.00 | 86 | 1010.6 |
| 20260503014038 | 12 | 250 | 1.6 | 11.3 | 0.00 | 0.00 | 0.00 | 87 | 1010.6 |
| 20260503013538 | 12 | 250 | 3.2 | 11.3 | 0.00 | 0.00 | 0.00 | 86 | 1010.6 |
| 20260503013044 | 12 | 246 | 3.2 | 11.3 | 0.00 | 0.00 | 0.00 | 86 | 1010.6 |
| 20260503012538 | 12 | 278 | 3.2 | 9.7 | 0.00 | 0.00 | 0.00 | 86 | 1010.6 |
| 20260503012037 | 12 | 259 | 3.2 | 14.5 | 0.00 | 0.00 | 0.00 | 86 | 1010.7 |
| 20260503011604 | 12 | 255 | 4.8 | 14.5 | 0.00 | 0.00 | 0.00 | 86 | 1010.7 |
| 20260503011038 | 12 | 250 | 3.2 | 16.1 | 0.00 | 0.00 | 0.00 | 85 | 1010.7 |
| 20260503010541 | 12 | 266 | 4.8 | 16.1 | 0.00 | 0.00 | 0.00 | 85 | 1010.7 |
| 20260503010048 | 12 | 315 | 4.8 | 11.3 | 0.00 | 0.00 | 0.00 | 85 | 1010.8 |
| 20260503005540 | 12 | 268 | 3.2 | 11.3 | 0.00 | 0.00 | 0.00 | 85 | 1010.8 |
| 20260503005037 | 12 | 265 | 3.2 | 11.3 | 0.00 | 0.00 | 0.00 | 85 | 1010.7 |
| 20260503004544 | 12 | 290 | 3.2 | 11.3 | 0.00 | 0.00 | 0.00 | 85 | 1010.8 |
| 20260503004037 | 12 | 255 | 4.8 | 11.3 | 0.00 | 0.00 | 0.00 | 85 | 1010.8 |
| 20260503003540 | 12 | 290 | 3.2 | 9.7 | 0.00 | 0.00 | 0.00 | 85 | 1010.8 |
| 20260503003044 | 12 | 263 | 3.2 | 9.7 | 0.00 | 0.00 | 0.00 | 85 | 1010.8 |
| 20260503002537 | 12 | 265 | 3.2 | 9.7 | 0.00 | 0.00 | 0.00 | 85 | 1010.9 |
| 20260503002037 | 12 | 249 | 3.2 | 11.3 | 0.00 | 0.00 | 0.00 | 85 | 1010.9 |
| 20260503001543 | 12 | 238 | 4.8 | 12.9 | 0.00 | 0.00 | 0.00 | 85 | 1011.0 |
| 20260503001038 | 12 | 254 | 4.8 | 12.9 | 0.00 | 0.00 | 0.00 | 85 | 1011.0 |
| 20260503000538 | 12 | 254 | 3.2 | 12.9 | 0.00 | 0.00 | 0.00 | 85 | 1011.0 |
| 20260503000058 | 12 | 254 | 3.2 | 8.0 | 0.00 | 0.00 | 0.00 | 85 | 1011.0 |
| 20260502235538 | 12 | 248 | 3.2 | 9.7 | 0.00 | 0.00 | 0.00 | 85 | 1011.0 |
| 20260502235038 | 12 | 269 | 4.8 | 9.7 | 0.00 | 0.00 | 0.00 | 85 | 1011.1 |
| 20260502234547 | 12 | 231 | 3.2 | 9.7 | 0.00 | 0.00 | 0.00 | 85 | 1011.1 |
| 20260502234038 | 12 | 266 | 4.8 | 8.0 | 0.00 | 0.00 | 0.00 | 85 | 1011.2 |
| 20260502233538 | 12 | 289 | 4.8 | 11.3 | 0.00 | 0.00 | 0.00 | 85 | 1011.2 |
| 20260502233046 | 13 | 243 | 4.8 | 11.3 | 0.00 | 0.00 | 0.00 | 85 | 1011.2 |
| 20260502232539 | 12 | 244 | 4.8 | 9.7 | 0.00 | 0.00 | 0.00 | 85 | 1011.2 |
| 20260502232038 | 12 | 235 | 4.8 | 9.7 | 0.00 | 0.00 | 0.00 | 85 | 1011.3 |
| 20260502231607 | 13 | 255 | 4.8 | 11.3 | 0.00 | 0.00 | 0.00 | 85 | 1011.4 |
| 20260502231038 | 13 | 253 | 4.8 | 11.3 | 0.00 | 0.00 | 0.00 | 84 | 1011.5 |
| 20260502230538 | 13 | 250 | 4.8 | 9.7 | 0.00 | 0.00 | 0.00 | 84 | 1011.5 |
| 20260502230046 | 13 | 246 | 4.8 | 11.3 | 0.00 | 0.00 | 0.00 | 85 | 1011.6 |
| 20260502225538 | 12 | 252 | 4.8 | 11.3 | 0.00 | 0.00 | 0.00 | 84 | 1011.7 |
| 20260502225039 | 13 | 243 | 3.2 | 8.0 | 0.00 | 0.00 | 0.00 | 85 | 1011.9 |
| 20260502224554 | 12 | 235 | 4.8 | 8.0 | 0.00 | 0.00 | 0.00 | 84 | 1011.9 |
| 20260502224038 | 12 | 244 | 3.2 | 8.0 | 0.00 | 0.00 | 0.00 | 84 | 1011.9 |
| 20260502223538 | 12 | 244 | 4.8 | 8.0 | 0.00 | 0.00 | 0.00 | 84 | 1011.9 |
| 20260502223051 | 12 | 234 | 4.8 | 8.0 | 0.00 | 0.00 | 0.00 | 84 | 1012.0 |
| 20260502222538 | 12 | 232 | 3.2 | 8.0 | 0.00 | 0.00 | 0.00 | 84 | 1012.1 |
| 20260502222040 | 12 | 243 | 4.8 | 8.0 | 0.00 | 0.00 | 0.00 | 84 | 1012.2 |
| 20260502221553 | 12 | 240 | 3.2 | 12.9 | 0.00 | 0.00 | 0.00 | 84 | 1012.2 |
| 20260502221038 | 12 | 232 | 4.8 | 12.9 | 0.00 | 0.00 | 0.00 | 85 | 1012.3 |
| 20260502220537 | 12 | 248 | 4.8 | 12.9 | 0.00 | 0.00 | 0.00 | 85 | 1012.4 |
| 20260502220050 | 12 | 255 | 4.8 | 12.9 | 0.00 | 0.00 | 0.00 | 85 | 1012.4 |
| 20260502215538 | 12 | 256 | 4.8 | 12.9 | 0.00 | 0.00 | 0.00 | 85 | 1012.4 |
| 20260502215038 | 12 | 288 | 4.8 | 12.9 | 0.00 | 0.00 | 0.00 | 84 | 1012.4 |
| 20260502214546 | 13 | 287 | 4.8 | 12.9 | 0.00 | 0.00 | 0.00 | 83 | 1012.4 |
| 20260502214037 | 12 | 218 | 4.8 | 11.3 | 0.00 | 0.00 | 0.00 | 83 | 1012.4 |
| 20260502213537 | 12 | 232 | 4.8 | 11.3 | 0.00 | 0.00 | 0.00 | 83 | 1012.4 |